EW7939 Weather Reports


time (UTC)temp
C
wind
direction
speed
KPH
gust
KPH
rain 1hr
cm
rain 24hr
cm
rain mn
cm
humidity
%
barometer
mb
20260506091553 7 231 1.6 4.8 0.00 0.58 0.03 87 1013.0
20260506090052 7 230 0.0 3.2 0.00 0.58 0.03 87 1012.5
20260506084550 7 230 0.0 3.2 0.00 0.58 0.03 87 1012.1
20260506083049 7 230 0.0 3.2 0.00 0.58 0.03 86 1012.2
20260506081551 7 230 0.0 1.6 0.00 0.58 0.03 86 1012.3
20260506073050 7 230 0.0 3.2 0.00 0.58 0.03 86 1012.6
20260506071551 7 229 1.6 6.4 0.00 0.58 0.03 85 1012.5
20260506070105 7 105 0.0 4.8 0.03 0.58 0.03 86 1012.8
20260506061538 8 126 1.6 6.4 0.03 0.58 0.03 89 1013.6
20260506044525 8 268 3.2 6.4 0.00 0.84 0.56 91 1011.8
20260506043021 8 268 3.2 9.7 0.00 0.84 0.56 90 1011.8
20260506041518 8 269 3.2 6.4 0.00 0.84 0.56 90 1011.5
20260506040018 8 269 3.2 6.4 0.00 0.84 0.56 89 1011.6
20260506034515 8 269 3.2 4.8 0.00 0.84 0.56 88 1011.4
20260506033012 8 269 3.2 4.8 0.00 0.84 0.56 88 1011.3
20260506031611 8 269 1.6 4.8 0.00 0.84 0.56 87 1011.1
20260506030011 9 269 1.6 6.4 0.00 0.84 0.56 87 1010.9
20260506024509 9 269 0.0 4.8 0.00 0.84 0.56 87 1010.8
20260506023107 9 269 3.2 4.8 0.00 0.84 0.56 87 1010.7
20260506021507 10 269 3.2 9.7 0.00 0.84 0.56 87 1010.6
20260506020007 10 269 3.2 6.4 0.00 0.84 0.56 86 1010.5
20260506014510 10 269 3.2 11.3 0.00 0.84 0.56 86 1010.5
20260506013005 10 279 1.6 8.0 0.00 0.84 0.56 85 1010.4
20260506011504 10 281 1.6 3.2 0.00 0.84 0.56 84 1010.0
20260506010004 10 281 0.0 0.0 0.00 0.84 0.56 84 1009.7
20260506004502 10 281 0.0 3.2 0.00 0.84 0.56 84 1009.4
20260506003002 10 281 0.0 4.8 0.00 0.84 0.56 84 1009.5
20260506001604 10 281 1.6 4.8 0.00 0.84 0.56 83 1009.5
20260506000100 10 281 0.0 4.8 0.00 0.84 0.56 83 1009.8
20260505234618 10 282 1.6 4.8 0.00 0.84 0.56 82 1009.8
20260505233059 10 282 0.0 4.8 0.00 0.84 0.56 82 1009.7
20260505231559 10 282 0.0 4.8 0.00 0.84 0.56 81 1009.5
20260505230058 10 282 3.2 8.0 0.00 0.84 0.56 81 1009.6
20260505224557 10 294 3.2 6.4 0.00 0.84 0.56 81 1009.4
20260505223104 10 294 1.6 6.4 0.00 0.84 0.56 81 1009.3
20260505221608 10 294 0.0 6.4 0.00 0.84 0.56 81 1009.4
20260505220138 10 294 1.6 4.8 0.03 0.84 0.56 80 1009.4
20260505214655 11 292 1.6 4.8 0.03 0.84 0.56 80 1009.8
20260505213054 11 292 1.6 6.4 0.03 0.84 0.56 80 1009.7
20260505211611 11 293 0.0 4.8 0.03 0.84 0.56 80 1009.3
20260505210053 10 306 1.6 4.8 0.00 0.81 0.53 80 1009.7
20260505204552 10 306 4.8 8.0 0.00 0.81 0.53 79 1009.8
20260505203054 10 349 0.0 3.2 0.00 0.81 0.53 80 1009.6
20260505201605 10 349 1.6 4.8 0.00 0.81 0.53 81 1009.7
20260505194601 10 53 0.0 4.8 0.00 0.81 0.53 80 1009.8
20260505193050 10 50 0.0 6.4 0.00 0.81 0.53 82 1009.8
20260505191553 10 44 1.6 6.4 0.00 0.81 0.53 82 1010.2
20260505190051 10 122 3.2 8.0 0.00 0.81 0.53 83 1009.8
20260505184548 9 146 3.2 8.0 0.00 0.81 0.53 84 1009.8
20260505183051 9 94 1.6 4.8 0.03 0.81 0.53 85 1010.2
20260505181548 9 113 1.6 6.4 0.05 0.81 0.53 85 1009.8
20260505180046 8 119 1.6 6.4 0.05 0.81 0.53 84 1010.2
20260505174547 9 128 1.6 6.4 0.08 0.81 0.53 83 1010.0
20260505173048 9 46 0.0 6.4 0.05 0.79 0.51 83 1010.5
20260505171544 9 33 0.0 4.8 0.05 0.76 0.48 83 1010.9
20260505170042 9 35 1.6 4.8 0.05 0.76 0.48 83 1011.1
20260505164540 9 136 1.6 3.2 0.08 0.71 0.46 83 1010.8
20260505163040 9 360 0.0 4.8 0.18 0.71 0.46 82 1010.8
20260505161540 9 360 0.0 4.8 0.18 0.71 0.43 82 1010.7
20260505153040 9 360 0.0 6.4 0.10 0.56 0.28 80 1010.0
20260505151535 9 306 0.0 6.4 0.08 0.53 0.25 79 1010.3
20260505124517 10 69 3.2 9.7 0.00 0.41 0.13 74 1007.7
20260505123014 9 163 4.8 12.9 0.00 0.41 0.13 75 1007.6
20260505121513 9 95 3.2 9.7 0.00 0.41 0.13 76 1007.7
20260505120010 9 67 1.6 11.3 0.00 0.41 0.13 77 1008.1
20260505114508 9 68 1.6 9.7 0.00 0.41 0.13 78 1007.6
20260505113007 9 119 1.6 11.3 0.00 0.41 0.13 78 1007.5
20260505111505 9 103 1.6 6.4 0.00 0.41 0.13 78 1007.6
20260505101559 10 242 1.6 12.9 0.10 0.41 0.13 73 1007.0
20260505100054 11 63 1.6 4.8 0.10 0.38 0.10 71 1006.1
20260505094550 11 5 1.6 3.2 0.10 0.38 0.10 67 1007.4
20260505093047 12 272 1.6 4.8 0.08 0.36 0.08 65 1007.6